{"data":{"norad_id":68041,"intl_designator":"2026-041B","name":"STARLINK-36825","alt_names":[],"object_type":"PAYLOAD","status":"ACTIVE","operator":null,"country":"US","launch_date":"2026-03-02","launch_site_code":"AFETR","launch_vehicle":null,"mission":null,"orbit_class":"UNKNOWN","rcs_meters":null,"size_class":null,"mass_kg":null,"dimensions":null,"purposes":["comms"],"wikipedia_slug":null,"has_3d_model":false,"image_url":null,"decayed_at":null,"tle_current":{"epoch":"2026-09-19T12:51:46.002240Z","epoch_age_seconds":142863,"freshness":"FRESH","line1":"1 68041U 26041B   26262.53594910  .00017125  00000+0  51691-3 0  9996","line2":"2 68041  53.1580 224.0302 0001311 151.0722 209.0354 15.34393878 31143","mean_motion":15.34393878,"eccentricity":0.0001311,"inclination_deg":53.158,"raan_deg":224.0302,"arg_perigee_deg":151.0722,"mean_anomaly_deg":209.0354,"bstar":0.00051691,"rev_number":3114,"period_min":93.848132519726,"perigee_km":461.82459960078,"apogee_km":463.61827268273,"semimajor_km":6840.8584361418,"source":"CELESTRAK","updated_at":"2026-09-20T09:00:43.747063Z"}}}